Regional Weather Roundup
Issued by NWS

Home | Current Version | Previous Version | Graphics & Text | Print | Product List | Glossary On
Versions: 1 2 3 4 5 6 7 8 9 10 11 12 13 14 15 16 17 18 19 20 21 22 23 24 25 26 27 28 29 30 31 32 33 34 35 36 37 38 39 40 41 42 43 44 45 46 47 48 49 50
000
ASUS43 KLSX 250507
RWRMO

WEATHER SUMMARY FOR MISSOURI
NATIONAL WEATHER SERVICE SPRINGFIELD MO
1100 PM CST FRI FEB 24 2017

NOTE: "FAIR" INDICATES FEW OR NO CLOUDS BELOW 12,000 FEET WITH NO
       SIGNIFICANT WEATHER AND/OR OBSTRUCTIONS TO VISIBILITY.
       CURRENT SKY AND/OR WEATHER CONDITIONS ARE NOT AVAILABLE FOR
       CHILLICOTHE AND FARMINGTON.

MOZ001>031-035>038-043-044-053-054-250600-
...NORTHERN AND WESTERN MISSOURI...

CITY           SKY/WX    TMP DP  RH WIND       PRES   REMARKS
KANSAS CTY INT PTCLDY    24  18  77 W10       30.05R WCI  14
KANSAS C DTWN  CLEAR     27  18  69 W10G21    30.07R WCI  17
LEE`S SUMMIT   CLOUDY    26  19  74 NW14      30.05R WCI  14
ST JOSEPH      CLOUDY    25  20  81 W9        30.06R WCI  15
CHILLICOTHE      N/A     25  19  78 W9        29.99R WCI  15
KIRKSVILLE     CLOUDY    25  21  85 NW17G25   29.89R WCI  12

$$
MOZ066>068-077>081-088>096-101>105-250600-
...SOUTHWEST MISSOURI...

CITY           SKY/WX    TMP DP  RH WIND       PRES   REMARKS
SPRINGFIELD    CLOUDY    31  19  61 NW14G23   30.01R WCI  21
JOPLIN         CLOUDY    30  19  63 NW18      30.11R WCI  18
BRANSON        CLOUDY    32  19  59 NW13G23   30.02R WCI  22

$$
MOZ032>034-039>042-045>050-055>058-069>072-250600-
...CENTRAL MISSOURI...

CITY           SKY/WX    TMP DP  RH WIND       PRES   REMARKS
COLUMBIA       CLOUDY    29  20  69 W22G30    29.93R WCI  15
JEFFERSON CITY CLOUDY    31  19  61 NW18G30   29.96R WCI  19
ROLLA          CLOUDY    30  20  66 W21G29    29.91R WCI  17
SEDALIA        MOCLDY    28  18  66 NW21G28   30.01R WCI  15
WHITEMAN AFB   CLOUDY    27  17  67 NW18G25   30.01R WCI  14
WARRENSBURG    MOCLDY    27  19  74 NW13G24   30.04R WCI  16
OSAGE BEACH    CLOUDY    31  19  61 W14G26    29.99R WCI  21

$$
MOZ051-052-059>065-250600-
...EAST CENTRAL MISSOURI...

CITY           SKY/WX    TMP DP  RH WIND       PRES   REMARKS
ST LOUIS INTL  CLOUDY    36  22  56 W25G33    29.84R WCI  24
SPIRIT OF STL  CLOUDY    35  22  58 W20G30    29.86R WCI  24
ST CHARLES     CLOUDY    34  22  61 W28G37    29.84R WCI  21

$$
MOZ072>076-082>087-097>100-106>115-250600-
...SOUTH CENTRAL AND SOUTHEAST MISSOURI...

CITY           SKY/WX    TMP DP  RH WIND       PRES   REMARKS
CAPE GIRARDEAU CLEAR     45  26  47 W16G24    29.82R
FARMINGTON     CLOUDY    39  27  62 W22G29    29.84R WCI  29
POPLAR BLUFF   PTCLDY    45  29  53 NW10      29.85R
WEST PLAINS    CLOUDY    36  22  56 NW18G26   29.94R WCI  26

$$



USA.gov is the U.S. government's official web portal to all federal, state and local government web resources and services.